Wind_Speed
33 39 40 34 28 22 21 25 30 32 32 30 30 28 26 25 26 25 24 23 22 22 23 24 25 25 26 24 23 28 34 35 33 32 33 35 34 34 33 36 36 36 38
30 30 33 30 29 25 26 30 32 28 24 25 27 28 27 27 27 27 26 24 24 23 23 24 24 25 27 28 23 21 25 29 30 28 27 25 26 28 29 31 34 37 32
28 27 27 31 29 26 29 30 31 29 26 27 28 27 27 27 28 28 29 27 26 25 25 28 29 30 30 29 26 22 22 22 21 22 23 22 26 27 29 29 26 26 22
24 28 28 27 25 25 28 29 26 25 26 27 28 28 29 28 29 29 29 27 26 26 26 28 30 32 33 32 30 28 26 25 24 22 21 20 21 21 24 26 24 22 22
21 23 23 20 19 21 24 26 25 25 26 27 28 29 29 28 27 27 27 26 25 26 26 28 30 31 31 33 33 32 30 29 26 25 25 22 18 16 15 17 20 19 21
25 24 25 27 27 25 24 26 25 25 26 27 26 25 26 25 26 24 24 23 25 27 27 28 29 30 32 33 34 34 33 32 31 30 29 25 20 18 17 16 18 21 23
25 26 26 26 25 24 25 26 26 26 27 26 23 22 23 24 24 24 24 24 26 27 26 26 26 27 29 30 32 33 34 33 32 33 33 30 27 23 20 20 20 20 22
23 24 23 23 22 24 26 27 26 24 22 21 21 21 20 20 19 20 22 24 25 26 25 25 25 26 27 28 30 32 33 34 34 35 35 34 33 31 27 25 25 26 26
16 18 21 23 25 25 27 29 27 23 22 24 23 22 19 18 19 20 20 22 22 23 24 24 25 26 27 28 29 31 33 34 37 37 38 39 39 38 35 33 32 32 32
17 21 24 24 24 22 20 22 20 19 19 18 18 17 18 18 18 18 18 18 19 20 20 20 22 24 24 25 25 27 29 32 37 39 41 42 43 43 42 40 39 37 37
11 15 17 17 17 16 16 16 16 15 15 15 15 15 14 14 15 16 16 16 16 17 17 20 22 23 24 25 26 27 28 29 31 33 35 36 38 40 41 44 46 44 41
5 5 4 4 6 9 13 15 15 14 13 13 13 12 13 14 14 13 13 14 16 18 19 21 24 25 27 28 29 31 32 32 32 32 33 34 34 35 35 36 40 43 44
7 7 4 4 3 5 7 8 8 8 10 11 13 16 16 14 12 13 14 16 17 20 23 27 31 32 32 33 33 33 34 34 33 33 34 35 35 35 35 36 37 37 38
9 8 6 2 4 4 5 7 8 9 11 13 15 13 12 13 14 15 16 18 20 24 28 31 32 32 32 32 32 33 33 32 31 32 33 35 38 39 38 36 34 35 35
9 8 7 4 3 4 6 8 10 10 11 11 12 13 14 15 15 16 16 18 23 27 29 29 28 28 28 29 29 29 30 30 30 30 31 31 32 33 34 36 36 36 35
12 11 11 10 9 10 11 12 12 12 13 15 15 15 15 16 17 16 16 20 24 26 27 28 27 26 27 27 25 24 24 26 28 30 32 33 32 32 32 33 34 34 36
14 14 15 15 14 14 15 15 16 16 17 17 17 16 16 17 16 17 19 22 24 25 25 26 26 26 26 26 24 24 24 24 24 24 25 27 28 30 31 34 37 38 37
17 17 17 17 17 16 16 17 18 18 18 18 18 18 18 17 16 18 21 24 25 26 27 28 28 26 25 25 25 26 26 26 26 26 27 27 28 29 31 32 35 39 41
21 19 18 18 18 17 17 17 18 18 19 19 19 19 18 16 17 19 22 25 28 29 30 30 29 27 27 27 29 30 30 30 29 28 27 27 27 29 32 35 36 37 39
24 22 20 20 19 19 18 18 19 19 19 19 19 18 17 16 17 19 23 26 29 30 31 31 29 28 28 29 29 29 28 26 25 26 25 25 25 25 26 27 28 29 31
24 23 22 21 21 22 21 20 21 21 20 19 19 18 16 15 17 20 24 28 29 28 28 29 28 27 27 26 27 27 26 24 22 23 24 24 24 24 23 23 24 23 25
19 21 23 24 23 23 23 22 22 21 20 19 18 16 16 17 19 22 26 28 26 23 22 24 27 28 26 25 25 26 25 24 23 23 24 25 25 26 26 24 23 22 22
16 18 21 22 22 23 24 23 21 21 19 19 18 16 17 19 22 24 26 27 24 22 22 25 27 27 28 27 25 25 24 25 26 26 27 27 26 27 27 26 24 23 23
17 16 17 19 22 24 24 23 22 21 19 19 19 18 18 19 21 22 24 23 23 25 27 30 29 27 28 28 27 25 24 24 26 27 27 26 26 28 27 26 25 24 24
18 16 14 14 18 22 23 22 21 20 19 19 20 20 20 19 19 21 21 21 23 27 29 31 30 31 33 31 29 28 27 27 29 29 28 27 27 28 29 27 26 26 27
20 20 17 15 15 17 19 20 20 19 17 18 19 21 22 21 20 20 21 22 25 25 25 28 32 34 35 34 32 31 30 31 32 31 29 27 27 28 28 28 27 27 26
Wind_Direction
263 257 254 256 248 249 254 261 265 271 271 268 271 272 273 279 280 278 278 276 271 265 266 275 282 285 289 296 294 272 266 266 266 261 254 255 259 259 251 248 246 243 244
251 249 251 253 244 249 260 264 265 265 265 266 268 270 273 273 274 275 275 276 274 270 267 269 275 282 291 293 296 286 271 264 263 266 261 257 255 250 243 247 249 244 237
231 234 243 244 240 252 262 263 263 266 268 269 269 268 268 270 272 273 273 274 275 273 267 263 266 274 283 289 291 290 291 287 283 282 273 258 258 248 239 242 242 238 242
224 227 230 234 234 247 264 266 265 267 268 266 265 265 266 268 270 270 270 272 273 271 266 264 266 271 275 277 279 280 281 282 285 292 296 287 272 256 243 238 240 238 236
240 242 244 243 248 251 259 264 263 261 259 259 260 264 268 270 270 270 269 269 271 273 271 268 269 270 270 271 272 272 272 273 274 280 283 282 276 268 256 255 260 257 246
262 256 248 242 238 241 249 258 263 264 265 265 265 266 269 272 273 271 268 269 272 273 271 269 270 271 270 269 269 268 268 268 266 266 268 271 267 256 251 253 254 255 252
273 268 259 255 249 245 252 261 263 267 268 267 266 268 272 272 270 271 274 274 273 272 272 273 273 272 271 271 270 269 269 266 263 263 263 262 261 256 250 249 248 249 253
256 250 256 261 259 257 262 268 267 268 269 268 267 270 274 279 278 275 275 275 275 275 274 271 271 271 270 270 271 270 269 267 263 261 261 262 261 258 253 247 243 241 242
254 253 257 260 260 261 256 251 258 263 265 268 270 270 270 271 275 277 276 277 278 277 276 273 271 269 267 265 265 266 267 266 263 260 260 262 263 261 257 252 246 242 239
267 266 265 263 259 256 250 245 245 251 261 260 263 267 274 278 281 287 291 286 280 277 276 275 274 273 271 269 265 261 261 261 261 260 259 258 258 259 259 257 253 247 243
286 277 269 263 257 251 242 232 228 234 242 249 264 279 285 292 301 300 293 285 284 284 284 286 286 283 281 278 275 270 265 261 261 261 262 262 262 260 259 259 257 254 251
343 335 310 258 230 223 226 230 232 237 249 263 271 275 287 299 302 302 299 295 297 299 301 302 300 296 291 286 282 279 274 269 265 263 262 263 265 266 265 264 263 261 255
355 3 23 80 145 194 211 222 226 242 263 270 279 290 294 295 295 296 293 295 302 306 306 303 301 299 296 293 290 286 282 280 278 273 266 263 261 262 265 267 268 265 262
333 345 0 76 144 189 225 247 261 270 275 280 287 293 299 305 302 296 294 299 307 308 305 303 302 303 304 303 299 293 288 283 279 274 270 265 261 259 260 263 267 269 270
312 321 326 327 302 275 272 273 274 276 277 280 285 291 297 300 297 293 297 308 311 308 309 312 315 315 315 313 308 298 288 280 277 273 270 266 262 260 259 261 264 265 263
287 288 288 287 284 283 285 285 288 293 296 296 297 301 303 304 304 303 309 317 318 319 325 329 329 327 325 323 319 311 300 290 282 276 272 270 267 264 263 262 262 262 263
280 278 276 274 274 278 283 286 288 296 303 306 307 306 302 303 302 300 312 324 329 330 328 327 326 325 326 326 324 321 314 306 297 288 279 273 269 267 265 265 264 262 260
272 276 275 274 274 277 280 282 285 290 296 301 303 299 296 297 296 301 313 324 333 335 329 322 318 319 321 324 326 326 322 316 310 305 300 293 286 279 276 276 272 267 262
262 267 267 268 271 275 279 281 283 287 292 297 298 296 294 292 293 300 311 325 334 335 332 326 318 313 313 317 319 319 317 314 313 311 306 300 294 289 285 284 282 272 262
255 259 260 259 263 267 271 274 277 282 287 292 295 296 293 288 290 299 313 326 331 332 331 329 324 318 315 316 317 317 316 315 314 316 316 312 307 301 296 294 292 281 269
252 251 258 260 258 262 265 267 273 279 283 286 290 294 291 289 294 302 314 325 330 333 337 338 334 327 321 318 319 319 318 318 319 318 318 318 316 310 305 302 299 294 282
254 253 256 262 260 261 265 267 271 277 280 281 284 289 289 290 293 298 307 316 324 332 340 344 346 344 339 328 322 321 320 317 315 315 316 316 316 315 311 308 304 298 293
255 257 260 260 258 261 263 266 271 274 274 273 276 281 282 285 289 292 298 307 314 322 327 331 335 342 346 342 333 325 323 321 318 315 314 316 316 316 314 310 307 303 296
262 261 262 262 261 264 264 265 268 267 266 269 273 276 279 283 288 288 291 299 307 312 317 326 332 337 341 340 337 331 326 326 324 318 313 311 314 316 315 312 308 306 301
268 267 269 271 266 264 264 265 264 260 259 263 265 269 274 279 282 282 286 298 306 311 318 324 329 333 335 337 336 333 330 328 326 323 317 314 316 317 316 313 310 307 302
269 268 274 278 274 265 261 262 261 259 258 261 264 269 274 276 277 279 287 298 307 314 319 325 331 331 329 332 333 334 333 330 328 325 320 317 316 316 315 312 309 307 304
Height
5743 5743 5747 5752 5754 5756 5757 5759 5761 5761 5762 5765 5767 5768 5769 5768 5768 5767 5767 5767 5767 5767 5766 5765 5763 5762 5761 5756 5753 5752 5752 5752 5751 5750 5750 5750 5750 5751 5752 5753 5754 5756 5759
5733 5736 5737 5742 5746 5748 5750 5751 5753 5754 5755 5757 5758 5760 5761 5761 5761 5761 5760 5760 5760 5759 5758 5758 5757 5757 5756 5753 5748 5746 5744 5744 5744 5743 5742 5742 5742 5743 5746 5746 5746 5748 5751
5725 5729 5730 5734 5739 5741 5742 5744 5745 5746 5747 5748 5749 5750 5753 5754 5754 5754 5754 5753 5751 5751 5750 5750 5749 5749 5749 5747 5744 5741 5739 5738 5737 5736 5736 5735 5736 5737 5739 5739 5739 5741 5743
5719 5722 5724 5728 5731 5733 5735 5736 5737 5739 5740 5741 5743 5744 5745 5745 5746 5746 5745 5744 5743 5742 5741 5740 5740 5739 5739 5739 5738 5737 5735 5733 5732 5730 5730 5730 5730 5731 5732 5732 5733 5735 5737
5712 5716 5717 5721 5724 5725 5729 5731 5731 5732 5734 5734 5734 5735 5736 5736 5736 5738 5738 5737 5735 5733 5733 5732 5731 5730 5729 5729 5729 5729 5729 5728 5727 5725 5724 5724 5724 5725 5726 5727 5729 5730 5731
5708 5708 5711 5713 5717 5719 5721 5723 5726 5727 5726 5725 5725 5726 5726 5727 5729 5728 5728 5727 5727 5727 5725 5724 5723 5722 5721 5720 5720 5720 5720 5721 5720 5721 5720 5720 5719 5720 5722 5723 5724 5725 5727
5701 5701 5704 5708 5710 5712 5714 5716 5718 5718 5717 5716 5717 5718 5718 5719 5719 5720 5720 5720 5720 5719 5718 5717 5715 5714 5713 5712 5711 5710 5710 5711 5712 5713 5713 5713 5713 5715 5716 5717 5718 5719 5721
5697 5698 5700 5703 5705 5706 5707 5707 5708 5709 5709 5709 5711 5712 5712 5713 5714 5714 5713 5713 5712 5711 5709 5707 5706 5705 5704 5703 5702 5702 5701 5702 5703 5703 5704 5705 5705 5707 5708 5710 5711 5712 5713
5694 5695 5695 5696 5698 5699 5700 5701 5701 5702 5703 5705 5706 5706 5706 5707 5707 5706 5706 5705 5704 5703 5701 5700 5698 5697 5696 5695 5693 5693 5692 5692 5693 5693 5693 5694 5695 5697 5698 5700 5702 5703 5703
5692 5691 5689 5690 5691 5691 5692 5694 5695 5696 5697 5699 5700 5700 5700 5700 5700 5699 5699 5699 5698 5697 5695 5694 5692 5690 5688 5687 5685 5684 5683 5682 5681 5682 5682 5683 5684 5686 5687 5689 5690 5692 5693
5687 5686 5685 5684 5684 5685 5687 5688 5690 5692 5693 5694 5695 5695 5694 5694 5692 5692 5692 5692 5691 5690 5689 5687 5685 5683 5681 5679 5677 5676 5674 5674 5672 5671 5670 5671 5671 5673 5674 5675 5677 5679 5680
5686 5684 5681 5680 5681 5683 5684 5686 5688 5689 5689 5690 5690 5690 5690 5689 5688 5688 5687 5687 5685 5684 5682 5680 5678 5676 5674 5672 5669 5667 5666 5665 5664 5663 5663 5662 5661 5661 5662 5663 5664 5665 5667
5684 5682 5680 5678 5679 5681 5682 5683 5684 5684 5684 5685 5686 5686 5686 5686 5685 5685 5684 5682 5681 5680 5677 5673 5669 5666 5663 5661 5659 5658 5656 5655 5654 5653 5653 5653 5652 5652 5652 5653 5652 5653 5655
5683 5681 5679 5678 5678 5679 5680 5680 5681 5682 5682 5683 5683 5682 5682 5682 5682 5681 5680 5678 5676 5674 5670 5665 5661 5657 5654 5651 5648 5646 5644 5643 5642 5641 5641 5641 5641 5642 5643 5642 5642 5643 5643
5681 5679 5679 5678 5678 5678 5678 5678 5679 5679 5679 5680 5679 5679 5679 5678 5677 5675 5674 5673 5670 5666 5661 5656 5652 5648 5645 5642 5639 5636 5634 5632 5631 5630 5630 5630 5629 5629 5630 5631 5631 5631 5632
5677 5677 5676 5676 5676 5676 5677 5677 5676 5676 5676 5676 5675 5675 5674 5673 5671 5670 5668 5667 5663 5658 5653 5649 5645 5641 5638 5634 5631 5628 5626 5623 5621 5620 5620 5619 5620 5620 5620 5619 5619 5619 5620
5673 5672 5672 5672 5672 5672 5672 5673 5672 5672 5671 5671 5670 5669 5668 5668 5666 5664 5663 5661 5657 5652 5648 5645 5641 5638 5633 5629 5626 5622 5619 5616 5613 5612 5611 5610 5610 5610 5610 5609 5608 5607 5608
5668 5668 5668 5669 5668 5668 5668 5667 5667 5667 5667 5666 5666 5665 5665 5664 5662 5659 5658 5656 5652 5647 5643 5640 5636 5632 5629 5625 5621 5617 5613 5610 5607 5604 5602 5601 5600 5599 5599 5597 5596 5594 5594
5662 5663 5663 5664 5663 5663 5663 5662 5662 5662 5662 5662 5662 5661 5660 5659 5657 5655 5653 5650 5646 5642 5638 5634 5630 5626 5623 5619 5615 5611 5607 5603 5600 5596 5593 5591 5590 5588 5587 5585 5582 5580 5579
5655 5656 5657 5657 5657 5657 5657 5657 5657 5657 5657 5656 5656 5655 5654 5653 5652 5650 5648 5645 5641 5637 5633 5628 5623 5619 5615 5612 5609 5605 5601 5597 5594 5589 5586 5583 5581 5579 5576 5574 5570 5567 5566
5647 5649 5649 5649 5650 5650 5650 5650 5650 5651 5650 5649 5649 5648 5647 5647 5646 5644 5642 5640 5636 5633 5628 5624 5619 5614 5609 5605 5602 5598 5594 5591 5588 5584 5580 5577 5574 5571 5568 5566 5562 5559 5557
5640 5641 5642 5642 5642 5643 5643 5643 5643 5643 5643 5643 5642 5641 5641 5641 5640 5639 5637 5635 5633 5629 5625 5621 5616 5611 5606 5601 5596 5592 5587 5583 5580 5577 5574 5570 5567 5563 5560 5557 5555 5552 5549
5633 5634 5634 5634 5634 5635 5635 5635 5635 5636 5636 5636 5635 5635 5635 5635 5635 5634 5632 5630 5628 5624 5621 5617 5614 5609 5603 5597 5592 5587 5582 5577 5573 5570 5567 5563 5559 5556 5552 5549 5546 5543 5540
5626 5627 5627 5627 5627 5628 5629 5628 5628 5628 5629 5629 5629 5629 5628 5629 5629 5628 5627 5625 5622 5619 5616 5612 5609 5604 5599 5593 5588 5583 5577 5572 5567 5563 5559 5556 5552 5547 5543 5540 5537 5534 5532
5620 5622 5622 5621 5620 5621 5622 5622 5622 5622 5623 5623 5623 5623 5623 5623 5623 5622 5621 5619 5616 5614 5610 5607 5603 5599 5594 5588 5583 5577 5571 5566 5561 5556 5552 5548 5544 5539 5535 5531 5527 5524 5522
5612 5615 5616 5615 5614 5613 5614 5616 5617 5617 5617 5617 5617 5617 5617 5617 5616 5616 5614 5612 5610 5607 5604 5601 5597 5592 5587 5581 5576 5570 5564 5558 5553 5548 5544 5540 5536 5532 5527 5523 5518 5515 5512